Weather History for PHOG - August, 2014

Change the Weather History Date:

Tuesday, August 12, 2014

  Actual Average Record
Temperature  
Mean Temperature 80 °F 80 °F  
Max Temperature 90 °F 88 °F 93 °F (1977)
Min Temperature 70 °F 72 °F 62 °F (2005)
Degree Days  
Heating Degree Days 0 0  
Month to date heating degree days 0 0  
Since 1 June heating degree days 0 0  
Since 1 July heating degree days 0 0  
Cooling Degree Days 15 15  
Month to date cooling degree days 197 180  
Year to date cooling degree days 2591 2266  
Since 1 June cooling degree days 1095 1007  
Growing Degree Days 30 (Base 50)    
Moisture  
Dew Point 69 °F    
Average Humidity 71    
Maximum Humidity 90    
Minimum Humidity 52    
Precipitation  
Precipitation 0.00 in 0.02 in 0.40 in (1971)
Month to date precipitation 0.29 0.22  
Year to date precipitation 15.47 10.42  
Snow  
Snow 0.00 in - - ()
Month to date snowfall 0.0  
Since 1 June snowfall 0.0  
Since 1 July snowfall 0.0  
Snow Depth 0.00 in    
Sea Level Pressure  
Sea Level Pressure 30.02 in    
Wind  
Wind Speed 9 mph (NE)    
Max Wind Speed 23 mph    
Max Gust Speed 28 mph    
Visibility 10 miles    
Events      
T = Trace of Precipitation, MM = Missing Value Source: NWS Daily Summary

Daily Weather History Graph

Daily Weather History Graph

Search for Another Location

Airport or City:

Trip Planner

Search our weather history database for the weather conditions in past years. The results will help you decide how hot, cold, wet, or windy it might be!

Date:

Astronomy

Aug. 12, 2014 Rise Set
Actual Time 6:03 AM HST 6:57 PM HST
Civil Twilight 5:40 AM HST 7:20 PM HST
Nautical Twilight 5:13 AM HST 7:47 PM HST
Astronomical Twilight 4:45 AM HST 8:15 PM HST
Moon 8:41 PM HST (8/12) 8:09 AM HST (8/12)
Length of Visible Light 13h 39m
Length of Day
12h 53m
Waning Gibbous, 93% of the Moon is Illuminated
Aug 12
Waning Gibbous
Aug 17
Last Quarter
Aug 25
New
Sep 2
First Quarter
Sep 8
Full

Hourly Weather History & Observations

Time (HST) Temp. Heat Index Dew Point Humidity Pressure Visibility Wind Dir Wind Speed Gust Speed Precip Events Conditions
12:54 AM 73.9 °F - 68.0 °F 82% 30.06 in 10.0 mi Calm Calm - N/A   Clear
1:54 AM 73.9 °F - 68.0 °F 82% 30.04 in 10.0 mi ENE 4.6 mph - N/A   Clear
2:54 AM 72.0 °F - 66.9 °F 84% 30.03 in 10.0 mi North 4.6 mph - N/A   Clear
3:54 AM 71.1 °F - 66.9 °F 87% 30.02 in 10.0 mi Calm Calm - N/A   Clear
4:54 AM 70.0 °F - 66.9 °F 90% 30.02 in 10.0 mi Calm Calm - N/A   Clear
5:54 AM 70.0 °F - 66.9 °F 90% 30.03 in 10.0 mi ENE 5.8 mph - N/A   Partly Cloudy
7:54 AM 81.0 °F 84.9 °F 71.1 °F 72% 30.05 in 10.0 mi NNE 5.8 mph - N/A   Partly Cloudy
8:54 AM 82.9 °F 88.0 °F 72.0 °F 69% 30.05 in 10.0 mi North 10.4 mph - N/A   Scattered Clouds
9:54 AM 86.0 °F 92.2 °F 72.0 °F 63% 30.04 in 10.0 mi North 15.0 mph - N/A   Scattered Clouds
10:54 AM 86.0 °F 93.0 °F 73.0 °F 65% 30.04 in 10.0 mi NNE 15.0 mph - N/A   Scattered Clouds
11:54 AM 89.1 °F 94.1 °F 70.0 °F 53% 30.03 in 10.0 mi NNE 16.1 mph - N/A   Scattered Clouds
12:54 PM 88.0 °F 93.8 °F 71.1 °F 57% 30.02 in 10.0 mi NNE 20.7 mph - N/A   Scattered Clouds
1:54 PM 88.0 °F 94.7 °F 72.0 °F 59% 30.00 in 10.0 mi NNE 17.3 mph - N/A   Scattered Clouds
2:54 PM 88.0 °F 94.7 °F 72.0 °F 59% 29.98 in 10.0 mi NNE 20.7 mph - N/A   Scattered Clouds
3:54 PM 88.0 °F 92.9 °F 70.0 °F 55% 29.96 in 10.0 mi NE 19.6 mph - N/A   Scattered Clouds
4:54 PM 87.1 °F 91.3 °F 69.1 °F 55% 29.94 in 10.0 mi NE 21.9 mph - N/A   Scattered Clouds
5:54 PM 84.9 °F 88.2 °F 68.0 °F 57% 29.94 in 10.0 mi NE 18.4 mph 26.5 mph N/A   Scattered Clouds
6:54 PM 81.0 °F 83.8 °F 68.0 °F 65% 29.97 in 10.0 mi ENE 12.7 mph - N/A   Partly Cloudy
7:54 PM 79.0 °F - 69.1 °F 72% 29.99 in 10.0 mi NE 10.4 mph - N/A   Scattered Clouds
8:54 PM 79.0 °F - 69.1 °F 72% 30.01 in 10.0 mi NE 8.1 mph - N/A   Scattered Clouds
9:54 PM 79.0 °F - 69.1 °F 72% 30.04 in 10.0 mi ENE 4.6 mph - N/A   Partly Cloudy
10:54 PM 78.1 °F - 68.0 °F 71% 30.04 in 10.0 mi ENE 8.1 mph - N/A   Partly Cloudy
11:54 PM 75.9 °F - 66.9 °F 74% 30.03 in 10.0 mi ENE 6.9 mph - N/A   Clear